Tracking 23611 objects as of 17-Sep-2021
HD Live streaming from Space Station
objects crossing your sky now
Track INSPIRATION-4

DMSP 5D-2 F13 DEB

Track DMSP 5D-2 F13 DEB now!
10-day predictions


NORAD ID: 40569
Int'l Code: 1995-015EC
Perigee: 775.0 km
Apogee: 805.0 km
Inclination: 98.7 °
Period: 100.5 minutes
Semi major axis: 7160 km
RCS: Unknown
Launch date: March 24, 1995
Source: United States (US)
Launch site: AIR FORCE WESTERN TEST RANGE (AFWTR)

Note: This is SATELLITE DEBRIS
aabbcc
Your satellite tracking list
Your tracking list is empty




NASA's NSSDC Master Catalog

Two Line Element Set (TLE):
1 40569U 95015EC  21260.32704911  .00002707  00000-0  10096-2 0  9996
2 40569  98.7145 293.1498 0020956 301.5019  58.4117 14.32662821336303
Source of the keplerian elements: AFSPC